Terminal Aerodrome Forecast
Issued by NWS Atlanta, GA

Home | Current Version | Previous Version | Text Only | Print | Product List | Glossary On
Versions: 1 2 3 4 5 6 7 8 9 10 11 12 13 14 15 16 17 18 19 20 21 22 23 24 25 26 27 28 29 30 31 32 33 34 35 36 37 38 39 40 41 42 43 44 45 46 47 48 49 50
000
FTAK31 PAJK 102027 AAA
TAFAHN
TAF AMD
PAHN 102027Z 1020/1118 29005KT 4SM -FZRA BR FEW008 FEW019 OVC035
     FM110400 08005KT 6SM BR OVC012
     FM110900 30008KT P6SM OVC025
     AMD LTD TO CLD VIS AND WIND=

USA.gov is the U.S. government's official web portal to all federal, state and local government web resources and services.